Date,Time,Air Temperature,Dewpoint,Windchill,Heat Index,RH,3m Max Wind Speed,3m Mean Wind Speed,3m Wind Direction,Rain,Solar Radiation
,,F,F,F,F,%,MPH,MPH,deg,in,MJ/m^2
2024-04-14,20:45,64.1,19.2,,64.1,17.6,11.1,6.7,167,0.0,0
2024-04-14,20:50,63.5,19.2,,63.5,18.0,10.5,4.8,167,0.0,0
2024-04-14,20:55,63.4,19.1,,63.4,18.0,11.5,6.6,172,0.0,0
2024-04-14,21:00,63.1,19.1,,63.1,18.1,10,5.7,170,0.0,0
2024-04-14,21:05,63.1,19,,63.1,18.1,10.6,6.7,177,0.0,0
2024-04-14,21:10,62.4,18.8,,62.4,18.4,10.5,4.8,166,0.0,0
2024-04-14,21:15,62.2,18.6,,62.2,18.4,11.5,5.7,171,0.0,0
2024-04-14,21:20,62.5,18.6,,62.5,18.2,11.1,6.9,165,0.0,0
2024-04-14,21:25,61.6,18.6,,61.6,18.7,10,4.7,164,0.0,0
2024-04-14,21:30,61.4,18.6,,61.4,18.9,9.7,5.2,172,0.0,0
2024-04-14,21:35,61.1,18.6,,61.1,19.1,9,4.3,174,0.0,0
2024-04-14,21:40,60.4,18.6,,60.4,19.5,6.2,2.2,184,0.0,0
2024-04-14,21:45,60,18.6,,60,19.8,5.6,3.1,165,0.0,0
2024-04-14,21:50,59.8,18.6,,59.8,20.0,6.3,3.6,170,0.0,0
2024-04-14,21:55,58.6,18.6,,58.6,20.9,3.1,1.7,228,0.0,0
2024-04-14,22:00,58.2,18.3,,58.2,20.9,2.3,0.8,261,0.0,0
2024-04-14,22:05,57.8,18.3,,57.8,21.2,3.1,1.8,130,0.0,0
2024-04-14,22:10,57.1,18.2,,57.1,21.7,2.9,1.7,156,0.0,0
2024-04-14,22:15,56.4,18.3,,56.4,22.3,4,1.6,198,0.0,0
2024-04-14,22:20,55.7,17.9,,55.7,22.5,1.7,1.1,276,0.0,0
2024-04-14,22:25,55.3,17.9,,55.3,22.8,2.6,0.8,38,0.0,0
2024-04-14,22:30,54.4,17.9,,54.4,23.5,1.7,1,317,0.0,0
2024-04-14,22:35,54.1,17.3,,54.1,23.3,2.5,1.6,318,0.0,0
2024-04-14,22:40,53.5,17.8,,53.5,24.2,2.2,1.5,326,0.0,0
2024-04-14,22:45,53.4,17.2,,53.4,23.7,2.1,1.1,337,0.0,0
2024-04-14,22:50,53.9,17.8,,53.9,23.9,2.5,1.5,316,0.0,0
2024-04-14,22:55,54,17.9,,54,23.9,2.6,1.5,287,0.0,0
2024-04-14,23:00,54.8,18.3,,54.8,23.7,3,1.7,220,0.0,0
2024-04-14,23:05,54.5,19.1,,54.5,24.8,2.7,2,232,0.0,0
2024-04-14,23:10,54.4,19.2,,54.4,25.0,3.4,1.9,213,0.0,0
2024-04-14,23:15,54.1,19.2,,54.1,25.3,1.4,0.8,317,0.0,0
2024-04-14,23:20,53.9,19.2,,53.9,25.5,2.3,1.2,60,0.0,0
2024-04-14,23:25,53.4,19.2,,53.4,25.9,1.9,1.4,37,0.0,0
2024-04-14,23:30,53.3,19.2,,53.3,26.0,2.3,1.4,14,0.0,0
2024-04-14,23:35,52.4,19.2,,52.4,26.8,2.5,1.3,20,0.0,0
2024-04-14,23:40,50.7,18.8,,50.7,28.1,4.4,2.3,321,0.0,0
2024-04-14,23:45,50.5,18.4,,50.5,27.8,3,1.4,346,0.0,0
2024-04-14,23:50,50.1,18.2,,50.1,27.9,2.8,1.7,308,0.0,0
2024-04-14,23:55,47.7,17.9,,47.7,30.2,3.1,2.2,290,0.0,0
2024-04-15,00:00,47.7,17.9,,47.7,30.2,2.3,1.2,27,0.0,0
2024-04-15,00:05,46.6,17.5,,46.6,30.9,4,2.5,315,0.0,0
2024-04-15,00:10,45.8,17.2,,45.8,31.5,5.4,3.2,300,0.0,0
2024-04-15,00:15,47.1,17.1,,47.1,29.8,4.8,3.1,280,0.0,0
2024-04-15,00:20,45.9,17.1,,45.9,31.2,4.4,3,289,0.0,0
2024-04-15,00:25,45,16.5,,45,31.5,4.7,3.5,294,0.0,0
2024-04-15,00:30,46.6,16.6,,46.6,29.8,2.7,1.3,286,0.0,0
2024-04-15,00:35,45.1,16.6,,45.1,31.5,4.8,2.2,296,0.0,0
2024-04-15,00:40,42.6,16.4,,42.6,34.3,4.7,3.8,284,0.0,0
2024-04-15,00:45,43.6,15.8,,43.6,32.2,3.6,2.4,281,0.0,0
2024-04-15,00:50,43.8,15.8,,43.8,32.0,3.5,2.6,291,0.0,0
2024-04-15,00:55,42.5,15.8,,42.5,33.5,5.3,3.4,288,0.0,0
2024-04-15,01:00,44.6,15.8,,44.6,31.0,2.2,1.1,285,0.0,0
2024-04-15,01:05,44.6,15.8,,44.6,30.9,2.1,1.3,278,0.0,0
2024-04-15,01:10,41.8,15.9,,41.8,34.7,5.1,3.2,291,0.0,0
2024-04-15,01:15,42.3,15.8,,42.3,33.9,5.1,4,286,0.0,0
2024-04-15,01:20,43,15.8,,43,32.9,3.9,3.3,291,0.0,0
2024-04-15,01:25,42,15.5,,42,33.7,3.9,2.4,311,0.0,0
2024-04-15,01:30,40,15.2,,40,36.0,2.8,1.4,300,0.0,0
2024-04-15,01:35,39.6,15,,39.6,36.3,2.4,1.4,281,0.0,0
2024-04-15,01:40,39.3,15,,39.3,36.8,3.7,2.6,286,0.0,0
2024-04-15,01:45,40.4,15,,40.4,35.3,2.9,2,293,0.0,0
2024-04-15,01:50,39.1,14.9,,39.1,36.8,4,3,286,0.0,0
2024-04-15,01:55,38.4,14.3,,38.4,36.7,5.4,4.5,290,0.0,0
2024-04-15,02:00,38.2,14.3,,38.2,37.1,4.6,3.1,287,0.0,0
2024-04-15,02:05,37.5,14.3,,37.5,38.1,3.6,2.6,290,0.0,0
2024-04-15,02:10,37.3,14.3,,37.3,38.4,3.4,2.4,280,0.0,0
2024-04-15,02:15,36.5,14.4,,36.5,40.0,4,3,288,0.0,0
2024-04-15,02:20,36.1,14.3,,36.1,40.2,3.6,2.3,287,0.0,0
2024-04-15,02:25,35.8,14.4,,35.8,41.1,3.8,2.3,48,0.0,0
2024-04-15,02:30,35.2,14.9,,35.2,43.0,5.5,1.9,353,0.0,0
2024-04-15,02:35,35.3,14.3,,35.3,41.6,3.7,2.2,270,0.0,0
2024-04-15,02:40,34.4,14.3,,34.4,43.0,3.3,1.8,231,0.0,0
2024-04-15,02:45,37.2,14.3,,37.2,38.6,4.8,3.4,264,0.0,0
2024-04-15,02:50,36.8,14.3,,36.8,39.2,4.3,2.6,292,0.0,0
2024-04-15,02:55,36.1,14.3,,36.1,40.2,3.6,2.3,272,0.0,0
2024-04-15,03:00,37.1,14.3,,37.1,38.7,3,1.9,278,0.0,0
2024-04-15,03:05,39.6,14.3,,39.6,35.1,2.6,1.3,269,0.0,0
2024-04-15,03:10,39.3,14.3,,39.3,35.5,2.4,1.7,346,0.0,0
2024-04-15,03:15,38,14.6,,38,37.9,5.1,2,243,0.0,0
2024-04-15,03:20,38.7,14.6,,38.7,36.9,2.9,2.2,322,0.0,0
2024-04-15,03:25,39,14.7,,39,36.7,3.2,1.9,6,0.0,0
2024-04-15,03:30,37.9,15,,37.9,38.8,4.4,2.4,358,0.0,0
2024-04-15,03:35,36.4,14.3,,36.4,39.8,4.7,2.6,262,0.0,0
2024-04-15,03:40,38.2,14.6,,38.2,37.6,3.3,1.6,318,0.0,0
2024-04-15,03:45,38.4,14.7,,38.4,37.5,5.9,2.8,296,0.0,0
2024-04-15,03:50,39.3,15,,39.3,36.7,4.1,2.4,302,0.0,0
2024-04-15,03:55,39,15,,39,37.2,3.6,2.4,3,0.0,0
2024-04-15,04:00,38.3,15,,38.3,38.2,1.9,1.3,290,0.0,0
2024-04-15,04:05,39.2,15,,39.2,37.0,3.3,1.9,337,0.0,0
2024-04-15,04:10,37.6,15,,37.6,39.3,3.6,2.2,273,0.0,0
2024-04-15,04:15,35,14.7,,35,43.0,5.9,2.9,275,0.0,0
2024-04-15,04:20,36.5,14.4,,36.5,40.0,3.9,1.7,163,0.0,0
2024-04-15,04:25,35.3,14.9,,35.3,42.8,7.4,4.5,66,0.0,0
2024-04-15,04:30,34.6,14.7,,34.6,43.7,4.2,1.9,41,0.0,0
2024-04-15,04:35,35.5,14.3,,35.5,41.3,4,2.6,262,0.0,0
2024-04-15,04:40,34.7,14.3,,34.7,42.6,3.3,1.7,288,0.0,0
2024-04-15,04:45,36.2,14.3,,36.2,40.1,5.5,2.6,30,0.0,0
2024-04-15,04:50,33.7,14.3,,33.7,44.3,4.8,2.6,299,0.0,0
2024-04-15,04:55,34.6,14.3,,34.6,42.8,2.9,1.6,7,0.0,0
2024-04-15,05:00,35,14.1,,35,41.9,2.7,1.2,270,0.0,0
2024-04-15,05:05,34.5,13.9,,34.5,42.4,3.1,1.7,261,0.0,0
2024-04-15,05:10,34.6,13.8,,34.6,41.8,3.6,1.9,229,0.0,0
2024-04-15,05:15,35.7,14.3,,35.7,40.9,3.5,1.7,283,0.0,0
2024-04-15,05:20,36.4,14.3,,36.4,39.8,2.6,1.5,280,0.0,0
2024-04-15,05:25,36.6,14.3,,36.6,39.5,4.7,1.8,13,0.0,0
2024-04-15,05:30,35.5,14.3,,35.5,41.3,3.7,1.8,24,0.0,0
2024-04-15,05:35,36.1,14.3,,36.1,40.3,2.4,1.5,352,0.0,0
2024-04-15,05:40,36.3,14.4,,36.3,40.2,2.8,1.7,3,0.0,0
2024-04-15,05:45,35.5,14.9,,35.5,42.5,3.3,2.3,61,0.0,0
2024-04-15,05:50,33.7,14.9,,33.7,45.6,2.4,1.3,11,0.0,0
2024-04-15,05:55,34.9,14.4,,34.9,42.6,2,1.3,337,0.0,0
2024-04-15,06:00,32.8,13.9,,32.8,45.3,3.8,2.6,301,0.0,0
2024-04-15,06:05,33.5,13.9,,33.5,44.1,2.9,2.1,333,0.0,0
2024-04-15,06:10,33.5,14.3,,33.5,44.7,4.8,3.7,59,0.0,0
2024-04-15,06:15,32.3,14.1,,32.3,46.7,6.1,3.7,294,0.0,0
2024-04-15,06:20,32.5,13.5,,32.5,44.8,4.3,2.4,293,0.0,0
2024-04-15,06:25,32.1,13.5,,32.1,45.7,3.3,2.1,315,0.0,0.00042
2024-04-15,06:30,32.3,13.5,,32.3,45.3,2.9,1.9,295,0.0,0.0009
2024-04-15,06:35,32.4,13.5,,32.4,45.2,3.3,2.3,287,0.0,0.00162
2024-04-15,06:40,32.5,13.5,,32.5,44.8,2,1.2,293,0.0,0.00348
2024-04-15,06:45,34,14.1,,34,43.5,2.9,1.3,59,0.0,0.0069
2024-04-15,06:50,34.5,14.3,,34.5,42.9,2.4,1.5,69,0.0,0.0099
2024-04-15,06:55,32.9,14.3,,32.9,45.7,2.4,1.2,322,0.0,0.01326
2024-04-15,07:00,32.7,14.3,,32.7,46.2,4.5,3.1,292,0.0,0.0165
2024-04-15,07:05,34.9,14.6,,34.9,42.9,4.6,2.7,297,0.0,0.01986
2024-04-15,07:10,35.4,15.3,,35.4,43.5,2.6,1.7,284,0.0,0.02322
2024-04-15,07:15,35.1,15.8,,35.1,44.8,2.9,1.6,280,0.0,0.0267
2024-04-15,07:20,35.6,16.2,,35.6,44.7,2.1,1.2,300,0.0,0.03048
2024-04-15,07:25,37.7,17.4,,37.7,43.3,2.2,1.1,47,0.0,0.0345
2024-04-15,07:30,39.1,18.4,,39.1,43.0,3.6,2.6,42,0.0,0.03846
2024-04-15,07:35,39.2,19.4,,39.2,44.6,4.8,4,83,0.0,0.04254
2024-04-15,07:40,39.3,19.6,,39.3,44.8,4.6,3.6,93,0.0,0.04728
2024-04-15,07:45,40.3,20.3,,40.3,44.3,3.6,2,91,0.0,0.05136
2024-04-15,07:50,41.3,21.2,,41.3,44.5,4.8,1.8,109,0.0,0.05586
2024-04-15,07:55,41.9,21.8,,41.9,44.5,6,3.2,114,0.0,0.0606
2024-04-15,08:00,42.4,22.4,,42.4,44.8,4.9,3.4,78,0.0,0.06588
2024-04-15,08:05,43.4,23.3,,43.4,44.7,5.8,2.9,80,0.0,0.07122
2024-04-15,08:10,44.4,23.9,,44.4,44.0,7.5,4.7,146,0.0,0.07608
2024-04-15,08:15,45.4,24.7,,45.4,44.1,10.8,6.6,155,0.0,0.08124
2024-04-15,08:20,46.1,25.4,,46.1,44,9,5.6,158,0.0,0.0864
2024-04-15,08:25,46.8,26.1,,46.8,44.1,17.5,9.6,170,0.0,0.0915
2024-04-15,08:30,48,26.9,,48,43.6,20.9,10.1,178,0.0,0.09696
2024-04-15,08:35,47.9,27.2,,47.9,44.2,20.8,9.5,183,0.0,0.10176
2024-04-15,08:40,48.3,27.1,,48.3,43.3,24.6,13.4,174,0.0,0.10704
2024-04-15,08:45,48.5,26.8,,48.5,42.7,25,13.5,178,0.0,0.11262
2024-04-15,08:50,48.7,26.4,,48.7,41.6,22,13.3,184,0.0,0.1179
2024-04-15,08:55,48.7,26.1,,48.7,41.1,19.9,12.7,182,0.0,0.12306
2024-04-15,09:00,48.2,26.3,,48.2,42.1,22.6,13.7,175,0.0,0.12876
2024-04-15,09:05,48.7,26.5,,48.7,41.7,20.8,14.7,173,0.0,0.13344
2024-04-15,09:10,49.5,25.6,,49.5,39.1,19.6,11.5,184,0.0,0.13974
2024-04-15,09:15,49.5,24.8,,49.5,37.9,17,10.7,192,0.0,0.13182
2024-04-15,09:20,49.3,24.1,,49.3,37.0,23.5,12.9,181,0.0,0.15192
2024-04-15,09:25,49.5,24.1,,49.5,36.8,24.4,14.9,178,0.0,0.15654
2024-04-15,09:30,49.5,23.5,,49.5,35.9,23.6,13.8,176,0.0,0.16068
2024-04-15,09:35,49.7,22.8,,49.7,34.5,25.7,15.8,172,0.0,0.16452
2024-04-15,09:40,49.2,20.6,,49.2,32.1,23.3,13.8,183,0.0,0.16956
2024-04-15,09:45,49.6,20.5,,49.6,31.4,29.1,15.8,179,0.0,0.17406
2024-04-15,09:50,49.5,19.5,,49.5,30.2,29.7,16.5,211,0.0,0.17784
2024-04-15,09:55,49.9,19.4,,49.9,29.6,34.3,13.2,181,0.0,0.18282
2024-04-15,10:00,49.2,17.9,,49.2,28.6,26.6,17,190,0.0,0.18756
2024-04-15,10:05,49.7,18.3,,49.7,28.5,27.6,16.9,201,0.0,0.19146
2024-04-15,10:10,49.6,18.3,,49.6,28.7,30.5,15.3,186,0.0,0.19572
2024-04-15,10:15,50.2,19.2,,50.2,29.1,24.3,12.8,186,0.0,0.1998
2024-04-15,10:20,49.7,19.4,,49.7,29.8,23,15.9,213,0.0,0.20346
2024-04-15,10:25,49.2,19.2,,49.2,30.2,25.5,15.7,224,0.0,0.207
2024-04-15,10:30,50.9,19.6,,50.9,28.9,19,10.6,204,0.0,0.21144
2024-04-15,10:35,50.4,19.1,,50.4,28.8,27.6,16.2,219,0.0,0.21474
2024-04-15,10:40,50.9,19,,50.9,28.1,28,15.9,229,0.0,0.22338
2024-04-15,10:45,50,19.1,,50,29.2,28.1,17.7,238,0.0,0.21528
2024-04-15,10:50,50,18.7,,50,28.7,31.6,17.9,233,0.0,0.20262
2024-04-15,10:55,50.7,19,,50.7,28.3,24.2,15.6,212,0.0,0.23124
2024-04-15,11:00,50.3,19.2,,50.3,29.0,22.6,15.5,238,0.0,0.23538
2024-04-15,11:05,50.5,19.5,,50.5,29.1,22.2,13.7,227,0.0,0.23166
2024-04-15,11:10,50.9,19.5,,50.9,28.7,24.7,13,213,0.0,0.2133
2024-04-15,11:15,51.1,19.4,,51.1,28.3,29.1,16.7,236,0.0,0.19704
2024-04-15,11:20,50.2,19.2,,50.2,29.1,24.7,16,238,0.0,0.2028
2024-04-15,11:25,50.9,19.2,,50.9,28.4,28.3,11.9,220,0.0,0.2427
2024-04-15,11:30,50.9,19.9,,50.9,29.2,24.1,15.6,218,0.0,0.23502
2024-04-15,11:35,50.8,19.9,,50.8,29.2,23.3,12.8,209,0.0,0.23424
2024-04-15,11:40,50.5,20,,50.5,29.8,21.1,12.1,226,0.0,0.22734
2024-04-15,11:45,51,19.9,,51,29.1,22.1,14.1,212,0.0,0.22104
2024-04-15,11:50,51.1,20.2,,51.1,29.4,21.9,11.8,217,0.0,0.23394
2024-04-15,11:55,51.5,20.2,,51.5,29.0,21.3,14.8,248,0.0,0.25782
2024-04-15,12:00,52.3,20,,52.3,27.9,22.2,13,223,0.0,0.26286
2024-04-15,12:05,52.8,20.2,,52.8,27.6,28.5,14.9,216,0.0,0.24774
2024-04-15,12:10,52.5,20.6,,52.5,28.4,20.1,12.9,231,0.0,0.2538
2024-04-15,12:15,51.8,20.5,,51.8,29.0,23.3,11.6,264,0.0,0.2274
2024-04-15,12:20,52.2,20.2,,52.2,28.2,25,16,229,0.0,0.23952
2024-04-15,12:25,51,19.9,,51,29.0,22.6,13.1,220,0.0,0.18516
2024-04-15,12:30,51.2,19.9,,51.2,28.9,28.6,15.6,230,0.0,0.20106
2024-04-15,12:35,51.8,19.9,,51.8,28.2,22.4,14.1,250,0.0,0.17118
2024-04-15,12:40,51.2,19.9,,51.2,28.9,17.4,10.6,228,0.0,0.20838
2024-04-15,12:45,52,20.4,,52,28.6,15.7,10.2,244,0.0,0.18432
2024-04-15,12:50,53,20.6,,53,27.9,16.2,9.1,190,0.0,0.27054
2024-04-15,12:55,52.7,21.2,,52.7,28.9,20.3,12.6,210,0.0,0.26436
2024-04-15,13:00,53.1,21.2,,53.1,28.5,21.1,11.6,219,0.0,0.29652
2024-04-15,13:05,54.1,21.7,,54.1,28.0,20.8,9.8,256,0.0,0.29286
2024-04-15,13:10,53.1,21.5,,53.1,28.8,21.2,12.5,248,0.0,0.22326
2024-04-15,13:15,52.4,21.2,,52.4,29.2,26.7,12.1,206,0.0,0.19422
2024-04-15,13:20,53.6,21.8,,53.6,28.7,16.9,10.5,182,0.0,0.26526
2024-04-15,13:25,53.6,22.1,,53.6,29.0,24.3,12.2,257,0.0,0.2157
2024-04-15,13:30,51.7,21.5,,51.7,30.3,22.3,15.9,276,0.0,0.10494
2024-04-15,13:35,51.8,20.9,,51.8,29.5,22.5,13.3,271,0.0,0.10824
2024-04-15,13:40,52.4,20.4,,52.4,28.1,20.3,13.1,245,0.0,0.10596
2024-04-15,13:45,52.7,20.2,,52.7,27.7,27.4,15.8,241,0.0,0.16866
2024-04-15,13:50,52.9,20.4,,52.9,27.7,21.2,12.6,235,0.0,0.1674
2024-04-15,13:55,53,20.2,,53,27.5,21.5,14.4,232,0.0,0.14454
2024-04-15,14:00,52.4,19.7,,52.4,27.5,17.6,10.5,251,0.0,0.09018
2024-04-15,14:05,52.4,20,,52.4,27.7,29.1,16.1,241,0.0,0.05808
2024-04-15,14:10,51.5,20.9,,51.5,29.7,25.7,18.9,260,0.0,0.04746
2024-04-15,14:15,51.2,20.6,,51.2,29.8,24.7,17.8,269,0.0,0.03966
2024-04-15,14:20,50.5,21.1,,50.5,31.2,20.9,10.7,275,0.0,0.04374
2024-04-15,14:25,50.3,21.1,,50.3,31.4,27.3,13.8,273,0.0,0.04938
2024-04-15,14:30,49.6,22.1,,49.6,33.6,34.9,23.9,287,0.0,0.05364
2024-04-15,14:35,49.5,23.1,,49.5,35.2,37.6,19.1,265,0.0,0.05916
2024-04-15,14:40,49.2,24.1,,49.2,37.2,25.3,16.6,269,0.0,0.14778
2024-04-15,14:45,50.4,25.2,,50.4,37.3,30.2,21.7,288,0.0,0.27852
2024-04-15,14:50,51.1,25.8,,51.1,37.1,31,17.5,272,0.0,0.26244
2024-04-15,14:55,51.3,25.7,,51.3,36.7,34.2,20.5,279,0.0,0.222
2024-04-15,15:00,51.2,24.1,,51.2,34.5,24.6,18.2,259,0.0,0.15786
2024-04-15,15:05,50.6,23.9,,50.6,34.8,24.6,16.8,263,0.0,0.12666
2024-04-15,15:10,50.5,23.9,,50.5,35.0,25.3,17.1,273,0.0,0.15834
2024-04-15,15:15,51.3,23.4,,51.3,33.4,22.1,15.1,255,0.0,0.14214
2024-04-15,15:20,51.7,24,,51.7,33.7,22.4,13.4,237,0.0,0.19542
2024-04-15,15:25,53.2,24.6,,53.2,32.8,17.5,11.1,212,0.0,0.27174
2024-04-15,15:30,53.3,24.6,,53.3,32.6,19.2,11.8,225,0.0,0.24546
2024-04-15,15:35,53.1,24,,53.1,31.9,22.2,13.4,213,0.0,0.18186
2024-04-15,15:40,52.7,22.9,,52.7,31.0,24.9,11.5,197,0.0,0.1068
2024-04-15,15:45,52.2,23.6,,52.2,32.7,28.7,18,233,0.0,0.15336
2024-04-15,15:50,53.2,24.8,,53.2,33.1,23.9,15,216,0.0,0.2322
2024-04-15,15:55,52.8,24.9,,52.8,33.7,22.4,14.2,243,0.0,0.16488
2024-04-15,16:00,51.9,24,,51.9,33.4,25,15.6,236,0.0,0.09678
2024-04-15,16:05,51.2,23.1,,51.2,33.0,28.1,17.5,243,0.0,0.08706
2024-04-15,16:10,50.9,23.2,,50.9,33.6,27.1,17.6,259,0.0,0.07314
2024-04-15,16:15,49.9,24.2,,49.9,36.3,24.4,17.2,259,0.0,0.0615
2024-04-15,16:20,48.9,25.7,,48.9,40.1,29.6,20.7,277,0.0,0.03762
2024-04-15,16:25,48.1,26.4,,48.1,42.5,25.4,16.8,281,0.0,0.0315
2024-04-15,16:30,47.6,26.5,,47.6,43.5,26,15,270,0.0,0.03528
2024-04-15,16:35,47.9,27.1,,47.9,44.1,21.4,14.8,285,0.0,0.15714
2024-04-15,16:40,47.1,28.2,,47.1,47.6,22.3,12.3,285,0.0,0.17862
2024-04-15,16:45,46.7,27.8,,46.7,47.6,9.1,4.6,260,0.0,0.1146
2024-04-15,16:50,47.3,27.7,,47.3,46.3,6.7,4.1,290,0.0,0.06324
2024-04-15,16:55,47.3,27.2,,47.3,45.3,7,2.8,268,0.0,0.0591
2024-04-15,17:00,47.7,27.1,,47.7,44.4,6.2,3.4,246,0.0,0.10188
2024-04-15,17:05,48.5,27.4,,48.5,43.6,8.6,5.3,258,0.0,0.1443
2024-04-15,17:10,49.6,27.4,,49.6,41.8,14.7,8.4,223,0.0,0.14868
2024-04-15,17:15,49.6,27.2,,49.6,41.5,12.6,9.6,236,0.0,0.08958
2024-04-15,17:20,49.1,27.1,,49.1,42.1,15.9,11.1,237,0.0,0.05082
2024-04-15,17:25,49.4,26.4,,49.4,40.5,21.4,13.8,230,0.0,0.05022
2024-04-15,17:30,49.1,26.7,,49.1,41.5,22.3,13,230,0.0,0.06426
2024-04-15,17:35,49,26.2,,49,40.8,20.9,14.5,233,0.0,0.04872
2024-04-15,17:40,48.3,26.4,,48.3,42.2,28.2,16.8,232,0.0,0.03852
2024-04-15,17:45,47.6,27.2,,47.6,44.7,24.9,16.4,234,0.0,0.06162
2024-04-15,17:50,48.2,27.1,,48.2,43.6,21.5,13.7,217,0.0,0.04542
2024-04-15,17:55,47.6,27.4,,47.6,45.2,21.1,13.4,217,0.0,0.033
2024-04-15,18:00,47.5,28,,47.5,46.6,18.8,11.1,207,0.0,0.02736
2024-04-15,18:05,47.1,28,,47.1,47.2,21.1,12,198,0.0,0.02988
2024-04-15,18:10,47.7,27.9,,47.7,46.1,20.6,10.8,214,0.0,0.03198
2024-04-15,18:15,48.2,27.2,,48.2,43.9,29.5,18.9,235,0.0,0.02604
2024-04-15,18:20,48.2,27.1,,48.2,43.6,29.4,19.4,235,0.0,0.01962
2024-04-15,18:25,47.5,27.5,,47.5,45.6,29.3,22.1,228,0.0,0.02094
2024-04-15,18:30,47.4,27.5,,47.4,45.9,38.3,20.9,233,0.0,0.01884
2024-04-15,18:35,46.9,27.6,,46.9,46.8,27.2,20,234,0.0,0.01662
2024-04-15,18:40,46.8,28.1,,46.8,48.0,25.9,15.1,230,0.0,0.02088
2024-04-15,18:45,46.7,28.3,,46.7,48.5,23.9,14.6,227,0.0,0.04116
2024-04-15,18:50,47.3,28.1,,47.3,47,25.1,15.6,230,0.0,0.06654
2024-04-15,18:55,47.3,28,,47.3,46.8,31.7,20.2,226,0.0,0.05778
2024-04-15,19:00,47.2,27.9,,47.2,47.0,30,19,231,0.0,0.04476
2024-04-15,19:05,46.8,28,,46.8,47.8,16.4,12.2,231,0.0,0.018
2024-04-15,19:10,46.5,28,,46.5,48.4,16.6,10.9,229,0.0,0.01038
2024-04-15,19:15,46.2,28,,46.2,48.9,19.5,13.1,233,0.0,0.00756
2024-04-15,19:20,46,27.9,,46,49.1,17.7,11.4,227,0.0,0.0045
2024-04-15,19:25,45.8,27.9,,45.8,49.4,16.8,10,230,0.0,0.0039
2024-04-15,19:30,45.7,27.8,,45.7,49.5,10.6,6.9,239,0.0,0.00336
2024-04-15,19:35,45.5,27.6,,45.5,49.4,11.7,6.9,239,0.0,0.00222
2024-04-15,19:40,45.4,27.6,,45.4,49.4,12.1,6.9,248,0.0,0.00102
2024-04-15,19:45,44.5,27.6,,44.5,51.1,8.5,5.5,290,0.0,0.00048
2024-04-15,19:50,44.3,27,,44.3,50.4,10.2,6.7,311,0.0,0.00024
2024-04-15,19:55,44.3,27.1,,44.3,50.4,9.7,6.6,318,0.0,0
2024-04-15,20:00,44.1,27.1,,44.1,50.9,7.4,4.6,293,0.0,0
2024-04-15,20:05,43.6,27.2,,43.6,52.2,6.1,4.8,302,0.0,0
2024-04-15,20:10,43.3,27.1,,43.3,52.5,4.9,3.6,312,0.0,0
2024-04-15,20:15,43.1,27.1,,43.1,52.9,2.6,1.5,326,0.0,0
2024-04-15,20:20,42.9,27.4,,42.9,54.0,2.2,1.2,37,0.0,0
2024-04-15,20:25,42.8,27.5,,42.8,54.6,3.3,2.2,25,0.0,0
2024-04-15,20:30,41.9,27.4,,41.9,56.0,2.6,1.5,2,0.0,0
2024-04-15,20:35,40.9,26.7,,40.9,56.6,2.5,1.6,292,0.0,0
2024-04-15,20:40,39.6,26,,39.6,57.9,3.9,3,286,0.0,0
2024-04-15,20:45,40.8,26.7,,40.8,56.9,2.8,1.7,276,0.0,0
2024-04-15,20:50,39.4,26.3,,39.4,59.0,3.8,2.8,290,0.0,0
2024-04-15,20:55,39.7,26.1,,39.7,58.0,3.6,2.9,289,0.0,0
2024-04-15,21:00,40.3,26.7,,40.3,57.9,2.9,2.3,287,0.0,0
2024-04-15,21:05,39.4,26.4,,39.4,59.4,4.1,3.4,304,0.0,0
2024-04-15,21:10,39.8,26.6,,39.8,58.8,4.3,2.2,287,0.0,0
2024-04-15,21:15,39.9,26.9,,39.9,59.4,22.5,8.2,310,0.0,0
2024-04-15,21:20,41.9,28.9,,41.9,59.6,25.6,16.8,301,0.0,0
2024-04-15,21:25,41.9,30.3,,41.9,63.1,21.6,13.8,310,0.0,0
2024-04-15,21:30,41.7,31.1,,41.7,65.8,24.8,18.8,303,0.0,0
2024-04-15,21:35,41.5,31.9,,41.5,68.5,22,16.3,297,0.0,0
2024-04-15,21:40,41.4,32.3,,41.4,69.8,23.6,14.9,298,0.0,0
2024-04-15,21:45,41.1,32.4,,41.1,70.9,16.1,10.6,300,0.0,0
2024-04-15,21:50,41,32.3,,41,71.2,16.4,11.3,306,0.0,0
2024-04-15,21:55,40.6,32.3,,40.6,72.1,11.2,7.2,304,0.0,0
2024-04-15,22:00,40.3,31.9,,40.3,71.8,10.5,6.8,311,0.0,0
2024-04-15,22:05,40.2,31.9,,40.2,72.1,10.4,7.4,321,0.0,0
2024-04-15,22:10,40.3,31.9,,40.3,71.9,19.3,10.7,330,0.0,0
2024-04-15,22:15,40.3,32.2,,40.3,72.6,20.3,12.5,326,0.0,0
2024-04-15,22:20,40.4,32.3,,40.4,72.9,20.1,13.1,318,0.0,0
2024-04-15,22:25,40.1,32.3,,40.1,73.4,17.4,11.1,304,0.0,0
2024-04-15,22:30,39.9,32.4,,39.9,74.1,15.9,10.5,305,0.0,0
2024-04-15,22:35,39.6,32.4,,39.6,75.0,12.5,7.4,296,0.0,0
2024-04-15,22:40,39.3,32.3,,39.3,75.8,9.6,6.5,301,0.0,0
2024-04-15,22:45,39.2,32.2,,39.2,75.8,13.1,8.8,296,0.0,0
2024-04-15,22:50,38.9,32.1,,38.9,76.5,9.5,6.7,299,0.0,0
2024-04-15,22:55,39,32,,39,75.9,12.1,8,311,0.0,0
2024-04-15,23:00,39.2,32.3,,39.2,76.1,13.5,8.4,323,0.0,0
2024-04-15,23:05,39.1,32.3,,39.1,76.3,12.5,7.2,325,0.0,0
2024-04-15,23:10,38.6,32.1,,38.6,77.3,9.4,5.2,348,0.0,0
2024-04-15,23:15,37.9,31.9,,37.9,78.9,8.6,4.9,5,0.0,0
2024-04-15,23:20,37.4,31.6,,37.4,79.5,6,3.9,15,0.0,0
2024-04-15,23:25,36.9,31.5,,36.9,80.6,8.4,4,9,0.0,0
2024-04-15,23:30,37,31.1,,37,79.0,8.9,5.3,184,0.0,0
2024-04-15,23:35,37.4,31.3,,37.4,78.5,11.4,8,159,0.0,0
2024-04-15,23:40,38.7,31.5,,38.7,75.4,16,8.3,168,0.0,0
2024-04-15,23:45,39.5,31.6,,39.5,73.1,13,6.6,230,0.0,0
2024-04-15,23:50,38.3,31.9,,38.3,77.8,9.5,6.6,212,0.0,0
2024-04-15,23:55,37.7,31.8,,37.7,79.0,6.7,4.9,211,0.0,0
2024-04-16,00:00,38.3,31.6,,38.3,76.8,7.9,5.8,236,0.0,0
2024-04-16,00:05,38.4,31.5,,38.4,76.2,6.1,3.7,265,0.0,0
2024-04-16,00:10,37.1,31.1,,37.1,78.6,4.1,2.5,284,0.0,0
2024-04-16,00:15,37,31,,37,78.7,2.5,1.6,204,0.0,0
2024-04-16,00:20,36.5,30.8,,36.5,79.7,4.9,1.9,354,0.0,0
2024-04-16,00:25,35.9,30.3,,35.9,79.9,4.3,2.6,15,0.0,0
2024-04-16,00:30,35.6,30.1,,35.6,80.2,2.4,1.2,38,0.0,0
2024-04-16,00:35,36.3,30.1,,36.3,78.0,3.1,2,75,0.0,0
2024-04-16,00:40,35.7,30.2,,35.7,80.3,2.5,1.1,151,0.0,0
2024-04-16,00:45,33.5,29.4,,33.5,84.6,4.2,3.3,292,0.0,0
2024-04-16,00:50,33.8,29,,33.8,82.3,3.5,1.8,274,0.0,0
2024-04-16,00:55,32.8,28.6,,32.8,84.3,5.3,3.2,296,0.0,0
2024-04-16,01:00,32.1,27.9,,32.1,84.3,6.4,4.9,297,0.0,0
2024-04-16,01:05,31.7,27.5,,31.7,84.1,5.2,3.8,300,0.0,0
2024-04-16,01:10,32,27.2,,32,82.2,3.5,2.7,297,0.0,0
2024-04-16,01:15,32.5,27.4,,32.5,81.2,3.1,2.6,303,0.0,0
2024-04-16,01:20,31.7,27.4,,31.7,83.8,3,2,300,0.0,0
2024-04-16,01:25,31.6,27.1,,31.6,83.0,3.2,1.8,275,0.0,0
2024-04-16,01:30,31.7,27.1,,31.7,82.8,3.7,2.2,297,0.0,0
2024-04-16,01:35,31.2,26.7,,31.2,83.3,3.5,2,289,0.0,0
2024-04-16,01:40,31.4,26.6,,31.4,82.3,3.2,2.3,292,0.0,0
2024-04-16,01:45,31.9,26.8,,31.9,81.2,2.5,2,298,0.0,0
2024-04-16,01:50,33,27.1,,33,78.6,1.5,0.8,234,0.0,0
2024-04-16,01:55,31,27.4,,31,86.3,4.5,2.3,300,0.0,0
2024-04-16,02:00,30.4,26.6,,30.4,85.6,4,3,290,0.0,0
2024-04-16,02:05,30.3,26.2,,30.3,84.5,4.1,2.9,290,0.0,0
2024-04-16,02:10,30.3,26.1,,30.3,84.1,3.5,2.4,283,0.0,0
2024-04-16,02:15,30.7,26,,30.7,82.6,3,1.5,271,0.0,0
2024-04-16,02:20,31.1,26.5,,31.1,82.8,2.1,1.2,31,0.0,0
2024-04-16,02:25,30.5,26.2,,30.5,83.9,2.3,1.6,335,0.0,0
2024-04-16,02:30,30.3,26.1,,30.3,84.3,1.2,0.7,332,0.0,0
2024-04-16,02:35,30.1,26.1,,30.1,84.8,1.6,1.2,321,0.0,0
2024-04-16,02:40,29.8,25.9,,29.8,85.3,2,1.5,309,0.0,0
2024-04-16,02:45,29.8,25.6,,29.8,84.0,2.2,1.7,299,0.0,0
2024-04-16,02:50,29.6,25.6,,29.6,84.7,2.8,2,301,0.0,0
2024-04-16,02:55,29.3,25.5,,29.3,85.6,3,2.4,286,0.0,0
2024-04-16,03:00,30,25.5,,30,83,2.4,1.4,278,0.0,0
2024-04-16,03:05,29.9,25.6,,29.9,83.6,2.2,1,343,0.0,0
2024-04-16,03:10,30.4,25.9,,30.4,83.2,2.6,1.7,250,0.0,0
2024-04-16,03:15,31.4,26.4,,31.4,81.7,3.2,2,216,0.0,0
2024-04-16,03:20,33.4,27.1,,33.4,77.2,5.7,4,195,0.0,0
2024-04-16,03:25,33.9,27.8,,33.9,77.8,5.5,4,198,0.0,0
2024-04-16,03:30,33.9,28.8,,33.9,81.1,6.5,4.7,192,0.0,0
2024-04-16,03:35,32.8,29,,32.8,85.5,7.5,5,188,0.0,0
2024-04-16,03:40,32.5,28.7,,32.5,85.8,6.1,3.8,189,0.0,0
2024-04-16,03:45,31.4,28.5,,31.4,88.9,3.6,2,257,0.0,0
2024-04-16,03:50,30.4,27.7,,30.4,89.5,2.5,1.3,281,0.0,0
2024-04-16,03:55,30.3,27.1,,30.3,87.5,2.5,1.6,305,0.0,0
2024-04-16,04:00,29.8,26.8,,29.8,88.4,4.3,3,295,0.0,0
2024-04-16,04:05,29.2,26.2,,29.2,88.6,5.8,3.6,292,0.0,0
2024-04-16,04:10,28.8,25.7,,28.8,88.1,4.1,2.8,298,0.0,0
2024-04-16,04:15,29.3,25.6,,29.3,85.8,2.8,1.9,276,0.0,0
2024-04-16,04:20,30,25.7,,30,83.7,2,1.1,269,0.0,0
2024-04-16,04:25,29.1,25.9,,29.1,87.7,4.1,2.8,302,0.0,0
2024-04-16,04:30,28.6,25.6,,28.6,88.4,5.4,4,291,0.0,0
2024-04-16,04:35,28.5,25.2,,28.5,87.2,4.3,2.4,295,0.0,0
2024-04-16,04:40,29.3,25.2,,29.3,84.3,2.8,2.1,301,0.0,0
2024-04-16,04:45,27.8,25.3,,27.8,90.2,4,2.5,289,0.0,0
2024-04-16,04:50,28.2,25.1,,28.2,87.8,2.9,2,294,0.0,0
2024-04-16,04:55,29.8,25.4,,29.8,83.5,4,2,311,0.0,0
2024-04-16,05:00,28.4,25.4,,28.4,88.3,4.8,3.3,63,0.0,0
2024-04-16,05:05,28.1,25.1,,28.1,88.3,2.9,2,105,0.0,0
2024-04-16,05:10,29.2,25.1,,29.2,84.5,3.2,2.1,149,0.0,0
2024-04-16,05:15,29,25.5,,29,86.6,2.1,1.2,118,0.0,0
2024-04-16,05:20,30.5,25.8,,30.5,82.5,3.1,1.3,242,0.0,0
2024-04-16,05:25,30.6,26.2,,30.6,83.6,6.9,2,336,0.0,0
2024-04-16,05:30,28,25.8,,28,91.2,5.9,2.6,284,0.0,0
2024-04-16,05:35,28.3,25.3,,28.3,88.3,4.4,2.8,283,0.0,0
2024-04-16,05:40,28.1,25.1,,28.1,88.2,3.9,2.3,288,0.0,0
2024-04-16,05:45,28.3,25.2,,28.3,87.9,3.2,2.1,297,0.0,0
2024-04-16,05:50,29.5,25.2,,29.5,83.8,2.4,1.7,268,0.0,0
2024-04-16,05:55,29.8,25.6,,29.8,84.2,3.3,2.2,313,0.0,0
2024-04-16,06:00,29.2,25.8,,29.2,87.1,5,3,296,0.0,0
2024-04-16,06:05,29.3,25.6,,29.3,85.7,2.4,1.5,255,0.0,0
2024-04-16,06:10,30.4,25.9,,30.4,83.2,3.1,1.7,251,0.0,0
2024-04-16,06:15,31.4,26.5,,31.4,81.8,4.6,1.6,220,0.0,0
2024-04-16,06:20,30.7,27,,30.7,85.8,13.2,7.5,196,0.0,0
2024-04-16,06:25,29.7,26.8,,29.7,88.6,8.6,5.6,175,0.0,0.00036
2024-04-16,06:30,29.8,26.9,,29.8,88.9,6.7,4,133,0.0,0.00072
2024-04-16,06:35,29.5,26.7,,29.5,89.1,3.6,2.3,277,0.0,0.00138
2024-04-16,06:40,29.5,26.6,,29.5,88.8,4,2.4,295,0.0,0.00252
2024-04-16,06:45,29.6,26.6,,29.6,88.3,4.8,3.4,299,0.0,0.00582
2024-04-16,06:50,29.9,26.6,,29.9,87.4,5.1,3.9,305,0.0,0.01224